Long Prairie, MN

11:52 AM CDT on August 18, 2017 (GMT -0500)
Long Prairie

Weather History for K14Y - July, 2013

Change the Weather History Date:

Tuesday, July 16, 2013

  Actual Average (KLXL) Record (KLXL)
Temperature  
Mean Temperature 78 °F -  
Max Temperature 86 °F 85 °F 100 °F (1988)
Min Temperature 69 °F 59 °F 42 °F (1958)
Cooling Degree Days 12    
Growing Degree Days 28 (Base 50)    
Moisture  
Dew Point 67 °F    
Average Humidity 71    
Maximum Humidity 94    
Minimum Humidity 48    
Precipitation  
Precipitation 0.00 in - - ()
Sea Level Pressure  
Sea Level Pressure 30.18 in    
Wind  
Wind Speed 9 mph (South)    
Max Wind Speed 15 mph    
Max Gust Speed 24 mph    
Visibility 10 miles    
Events      
Averages and records for this station are not official NWS values.
T = Trace of Precipitation, MM = Missing Value Source: NWS Daily Summary

Daily Weather History Graph

Daily Weather History Graph

Search for Another Location

Airport or City:

Trip Planner

Search our weather history database for the weather conditions in past years. The results will help you decide how hot, cold, wet, or windy it might be!

Date:

Astronomy

Jul. 16, 2013 Rise Set
Actual Time 5:45 AM CDT 9:05 PM CDT
Civil Twilight 5:08 AM CDT 9:42 PM CDT
Nautical Twilight 4:20 AM CDT 10:29 PM CDT
Astronomical Twilight 3:19 AM CDT 11:30 PM CDT
Moon 2:40 PM CDT (7/16) 12:25 AM CDT (7/16)
Length of Visible Light 16h 33m
Length of Day
15h 20m
First Quarter, 56% of the Moon is Illuminated
Jul 16
First Quarter
Jul 22
Full
Jul 29
Last Quarter
Aug 6
New
Aug 14
First Quarter

Hourly Weather History & Observations

Time (CDT) Temp. Heat Index Dew Point Humidity Pressure Visibility Wind Dir Wind Speed Gust Speed Precip Events Conditions
12:16 AM 71.6 °F - 64.4 °F 78% 30.17 in 10.0 mi SSE 8.1 mph - N/A   Clear
12:36 AM 71.6 °F - 64.4 °F 78% 30.17 in 10.0 mi SE 8.1 mph - N/A   Clear
12:56 AM 71.6 °F - 64.4 °F 78% 30.16 in 10.0 mi SE 8.1 mph - N/A   Clear
1:16 AM 71.6 °F - 66.2 °F 83% 30.16 in 10.0 mi SE 6.9 mph - N/A   Clear
1:37 AM 69.8 °F - 66.2 °F 88% 30.16 in 10.0 mi SE 8.1 mph - N/A   Clear
1:56 AM 69.8 °F - 66.2 °F 88% 30.16 in 10.0 mi SE 6.9 mph - N/A   Scattered Clouds
2:16 AM 69.8 °F - 66.2 °F 88% 30.16 in 10.0 mi SE 8.1 mph - N/A   Scattered Clouds
2:36 AM 69.8 °F - 66.2 °F 88% 30.15 in 10.0 mi SE 10.4 mph - N/A   Scattered Clouds
2:56 AM 69.8 °F - 66.2 °F 88% 30.15 in 10.0 mi SE 6.9 mph - N/A   Clear
3:17 AM 69.8 °F - 66.2 °F 88% 30.15 in 10.0 mi SE 9.2 mph - N/A   Clear
3:36 AM 69.8 °F - 66.2 °F 88% 30.14 in 10.0 mi SE 12.7 mph - N/A   Clear
3:56 AM 69.8 °F - 68.0 °F 94% 30.14 in 10.0 mi SSE 11.5 mph - N/A   Clear
4:16 AM 69.8 °F - 68.0 °F 94% 30.14 in 10.0 mi SSE 9.2 mph - N/A   Clear
4:37 AM 71.6 °F - 68.0 °F 88% 30.15 in 10.0 mi South 10.4 mph - N/A   Clear
4:56 AM 71.6 °F - 68.0 °F 88% 30.15 in 10.0 mi South 8.1 mph - N/A   Clear
5:16 AM 71.6 °F - 68.0 °F 88% 30.15 in 10.0 mi South 8.1 mph - N/A   Clear
5:36 AM 69.8 °F - 68.0 °F 94% 30.16 in 10.0 mi South 6.9 mph - N/A   Clear
5:57 AM 69.8 °F - 68.0 °F 94% 30.16 in 10.0 mi South 6.9 mph - N/A   Clear
6:17 AM 69.8 °F - 68.0 °F 94% 30.16 in 10.0 mi South 6.9 mph - N/A   Clear
6:36 AM 69.8 °F - 68.0 °F 94% 30.16 in 10.0 mi South 6.9 mph - N/A   Clear
6:56 AM 69.8 °F - 68.0 °F 94% 30.17 in 10.0 mi South 6.9 mph - N/A   Clear
7:17 AM 71.6 °F - 68.0 °F 88% 30.18 in 10.0 mi South 8.1 mph - N/A   Clear
7:36 AM 71.6 °F - 68.0 °F 88% 30.18 in 10.0 mi South 8.1 mph - N/A   Clear
7:56 AM 73.4 °F - 68.0 °F 83% 30.18 in 10.0 mi South 9.2 mph - N/A   Clear
8:16 AM 73.4 °F - 68.0 °F 83% 30.19 in 10.0 mi South 9.2 mph - N/A   Clear
8:37 AM 75.2 °F - 68.0 °F 78% 30.19 in 10.0 mi South 10.4 mph - N/A   Clear
8:56 AM 77.0 °F - 68.0 °F 74% 30.20 in 10.0 mi SSW 11.5 mph 19.6 mph N/A   Clear
9:16 AM 77.0 °F - 68.0 °F 74% 30.20 in 10.0 mi SSW 10.4 mph 19.6 mph N/A   Clear
9:36 AM 78.8 °F - 68.0 °F 69% 30.20 in 10.0 mi South 11.5 mph 18.4 mph N/A   Clear
9:57 AM 78.8 °F - 69.8 °F 74% 30.19 in 10.0 mi South 10.4 mph - N/A   Clear
10:17 AM 80.6 °F 83.9 °F 69.8 °F 70% 30.19 in 10.0 mi SSW 8.1 mph - N/A   Clear
10:36 AM 80.6 °F 83.9 °F 69.8 °F 70% 30.20 in 10.0 mi SSW 9.2 mph - N/A   Clear
10:56 AM 82.4 °F 85.4 °F 68.0 °F 62% 30.20 in 10.0 mi SSW 9.2 mph 16.1 mph N/A   Clear
11:17 AM 82.4 °F 85.4 °F 68.0 °F 62% 30.20 in 10.0 mi SSW 12.7 mph - N/A   Clear
11:37 AM 82.4 °F 85.4 °F 68.0 °F 62% 30.20 in 10.0 mi SSW 10.4 mph - N/A   Clear
11:56 AM 82.4 °F 85.4 °F 68.0 °F 62% 30.20 in 10.0 mi SSW 10.4 mph - N/A   Clear
12:17 PM 82.4 °F 85.4 °F 68.0 °F 62% 30.20 in 10.0 mi SSW 9.2 mph - N/A   Clear
12:37 PM 84.2 °F 87.3 °F 68.0 °F 58% 30.20 in 10.0 mi SSW 10.4 mph 18.4 mph N/A   Clear
12:56 PM 84.2 °F 87.3 °F 68.0 °F 58% 30.19 in 10.0 mi SSW 12.7 mph 18.4 mph N/A   Clear
1:16 PM 86.0 °F 89.4 °F 68.0 °F 55% 30.19 in 10.0 mi SSE 13.8 mph - N/A   Clear
1:37 PM 86.0 °F 89.4 °F 68.0 °F 55% 30.19 in 10.0 mi South 13.8 mph 17.3 mph N/A   Clear
1:57 PM 86.0 °F 90.4 °F 69.8 °F 58% 30.20 in 10.0 mi South 15.0 mph 19.6 mph N/A   Scattered Clouds
2:16 PM 86.0 °F 89.4 °F 68.0 °F 55% 30.20 in 10.0 mi SSW 12.7 mph 24.2 mph N/A   Scattered Clouds
2:36 PM 86.0 °F 89.4 °F 68.0 °F 55% 30.19 in 10.0 mi SSW 11.5 mph 19.6 mph N/A   Clear
2:56 PM 86.0 °F 89.4 °F 68.0 °F 55% 30.19 in 10.0 mi South 13.8 mph - N/A   Clear
3:17 PM 86.0 °F 89.4 °F 68.0 °F 55% 30.19 in 10.0 mi South 13.8 mph 19.6 mph N/A   Scattered Clouds
3:37 PM 86.0 °F 89.4 °F 68.0 °F 55% 30.19 in 10.0 mi South 11.5 mph 19.6 mph N/A   Scattered Clouds
3:56 PM 86.0 °F 89.4 °F 68.0 °F 55% 30.19 in 10.0 mi South 13.8 mph 20.7 mph N/A   Scattered Clouds
4:17 PM 86.0 °F 88.2 °F 66.2 °F 51% 30.19 in 10.0 mi SSW 10.4 mph 17.3 mph N/A   Scattered Clouds
4:37 PM 86.0 °F 87.3 °F 64.4 °F 48% 30.19 in 10.0 mi SSW 12.7 mph 19.6 mph N/A   Clear
4:57 PM 86.0 °F 88.2 °F 66.2 °F 51% 30.18 in 10.0 mi SSW 11.5 mph 16.1 mph N/A   Clear
5:16 PM 86.0 °F 87.3 °F 64.4 °F 48% 30.18 in 10.0 mi SSW 15.0 mph - N/A   Clear
5:36 PM 86.0 °F 87.3 °F 64.4 °F 48% 30.18 in 10.0 mi South 12.7 mph - N/A   Clear
5:57 PM 86.0 °F 87.3 °F 64.4 °F 48% 30.18 in 10.0 mi South 9.2 mph - N/A   Clear
6:17 PM 86.0 °F 87.3 °F 64.4 °F 48% 30.18 in 10.0 mi South 13.8 mph 19.6 mph N/A   Clear
6:37 PM 84.2 °F 85.6 °F 64.4 °F 51% 30.18 in 10.0 mi South 13.8 mph - N/A   Clear
6:56 PM 84.2 °F 85.6 °F 64.4 °F 51% 30.18 in 10.0 mi South 12.7 mph 16.1 mph N/A   Clear
7:17 PM 82.4 °F 83.9 °F 64.4 °F 54% 30.18 in 10.0 mi South 10.4 mph - N/A   Clear
7:37 PM 82.4 °F 83.9 °F 64.4 °F 54% 30.18 in 10.0 mi SSW 8.1 mph - N/A   Clear
7:56 PM 82.4 °F 83.9 °F 64.4 °F 54% 30.18 in 10.0 mi SSW 6.9 mph - N/A   Clear
8:16 PM 80.6 °F 82.7 °F 66.2 °F 61% 30.18 in 10.0 mi South 4.6 mph - N/A   Clear
8:36 PM 78.8 °F - 68.0 °F 69% 30.18 in 10.0 mi South 5.8 mph - N/A   Clear
8:57 PM 77.0 °F - 68.0 °F 74% 30.19 in 10.0 mi South 4.6 mph - N/A   Clear
9:17 PM 75.2 °F - 68.0 °F 78% 30.20 in 10.0 mi South 4.6 mph - N/A   Clear
9:36 PM 75.2 °F - 66.2 °F 73% 30.20 in 10.0 mi South 5.8 mph - N/A   Clear
9:56 PM 75.2 °F - 66.2 °F 73% 30.21 in 10.0 mi South 5.8 mph - N/A   Clear
10:17 PM 73.4 °F - 66.2 °F 78% 30.21 in 10.0 mi South 6.9 mph - N/A   Clear
10:37 PM 73.4 °F - 66.2 °F 78% 30.22 in 10.0 mi South 4.6 mph - N/A   Clear
10:57 PM 73.4 °F - 66.2 °F 78% 30.21 in 10.0 mi South 5.8 mph - N/A   Clear
11:16 PM 73.4 °F - 66.2 °F 78% 30.21 in 10.0 mi South 8.1 mph - N/A   Clear
11:37 PM 73.4 °F - 66.2 °F 78% 30.22 in 10.0 mi South 6.9 mph - N/A   Clear
11:56 PM 73.4 °F - 66.2 °F 78% 30.22 in 10.0 mi South 6.9 mph - N/A   Clear